TimeMDT,TemperatureF,Dew PointF,Humidity,Sea Level PressureIn,VisibilityMPH,Wind Direction,Wind SpeedMPH,Gust SpeedMPH,PrecipitationIn,Events,Conditions,WindDirDegrees,DateUTC
12:15 AM,37.4,23.0,56,29.86,10.0,WNW,4.6,-,N/A,,Clear,300,2012-10-09 06:15:00
12:55 AM,37.4,21.2,52,29.86,8.0,NW,4.6,-,N/A,,Clear,320,2012-10-09 06:55:00
1:15 AM,39.2,21.2,49,29.88,10.0,North,10.4,-,N/A,,Clear,360,2012-10-09 07:15:00
1:55 AM,44.6,24.8,46,29.90,10.0,North,15.0,-,N/A,,Clear,360,2012-10-09 07:55:00
2:15 AM,44.6,26.6,49,29.90,10.0,North,16.1,-,N/A,,Clear,360,2012-10-09 08:15:00
2:35 AM,44.6,28.4,53,29.90,10.0,North,15.0,25.3,N/A,,Clear,360,2012-10-09 08:35:00
2:55 AM,42.8,28.4,57,29.92,10.0,South,4.6,-,N/A,,Clear,170,2012-10-09 08:55:00
3:15 AM,42.8,30.2,61,29.92,10.0,NNE,13.8,-,N/A,,Clear,30,2012-10-09 09:15:00
3:35 AM,42.8,30.2,61,29.93,10.0,NNE,15.0,19.6,N/A,,Clear,20,2012-10-09 09:35:00
3:55 AM,41.0,30.2,65,29.94,10.0,NNE,11.5,-,N/A,,Clear,20,2012-10-09 09:55:00
4:15 AM,41.0,32.0,70,29.95,9.0,NNE,6.9,-,N/A,,Clear,30,2012-10-09 10:15:00
4:35 AM,41.0,32.0,70,29.97,10.0,Calm,Calm,-,N/A,,Clear,0,2012-10-09 10:35:00
5:15 AM,37.4,30.2,75,29.99,10.0,SSW,3.5,-,N/A,,Clear,200,2012-10-09 11:15:00
5:35 AM,37.4,30.2,75,30.00,10.0,SW,4.6,-,N/A,,Clear,230,2012-10-09 11:35:00
5:55 AM,35.6,30.2,81,30.02,10.0,Calm,Calm,-,N/A,,Clear,0,2012-10-09 11:55:00
6:15 AM,35.6,30.2,81,30.03,10.0,Calm,Calm,-,N/A,,Clear,0,2012-10-09 12:15:00
6:35 AM,33.8,26.6,75,30.04,10.0,NW,3.5,-,N/A,,Clear,310,2012-10-09 12:35:00
6:55 AM,33.8,28.4,81,30.04,10.0,NW,3.5,-,N/A,,Clear,320,2012-10-09 12:55:00
7:15 AM,33.8,26.6,75,30.06,10.0,Calm,Calm,-,N/A,,Clear,0,2012-10-09 13:15:00
7:35 AM,32.0,26.6,80,30.06,10.0,Calm,Calm,-,N/A,,Partly Cloudy,0,2012-10-09 13:35:00
7:55 AM,33.8,28.4,81,30.07,10.0,Calm,Calm,-,N/A,,Mostly Cloudy,0,2012-10-09 13:55:00
8:15 AM,35.6,30.2,81,30.08,10.0,Calm,Calm,-,N/A,,Overcast,0,2012-10-09 14:15:00
8:35 AM,37.4,32.0,81,30.09,10.0,Calm,Calm,-,N/A,,Overcast,0,2012-10-09 14:35:00
8:55 AM,39.2,32.0,75,30.10,10.0,Calm,Calm,-,N/A,,Overcast,0,2012-10-09 14:55:00
9:15 AM,39.2,32.0,75,30.11,10.0,Calm,Calm,-,N/A,,Overcast,0,2012-10-09 15:15:00
9:35 AM,42.8,33.8,70,30.11,10.0,Calm,Calm,-,N/A,,Overcast,0,2012-10-09 15:35:00
9:55 AM,42.8,33.8,70,30.12,10.0,Calm,Calm,-,N/A,,Overcast,0,2012-10-09 15:55:00
10:15 AM,42.8,33.8,70,30.12,10.0,ENE,10.4,-,N/A,,Overcast,60,2012-10-09 16:15:00
10:35 AM,42.8,33.8,70,30.12,10.0,NE,5.8,-,N/A,,Overcast,40,2012-10-09 16:35:00
10:55 AM,42.8,35.6,76,30.13,9.0,NNE,6.9,-,N/A,,Overcast,30,2012-10-09 16:55:00
11:15 AM,44.6,35.6,71,30.12,10.0,NE,6.9,-,N/A,,Overcast,50,2012-10-09 17:15:00
11:35 AM,44.6,35.6,71,30.12,10.0,NE,6.9,-,N/A,,Overcast,50,2012-10-09 17:35:00
11:55 AM,46.4,35.6,66,30.12,10.0,ENE,8.1,-,N/A,,Overcast,70,2012-10-09 17:55:00
12:15 PM,46.4,35.6,66,30.12,10.0,ENE,8.1,-,N/A,,Overcast,60,2012-10-09 18:15:00
12:35 PM,46.4,35.6,66,30.12,10.0,ENE,8.1,-,N/A,,Overcast,60,2012-10-09 18:35:00
12:55 PM,46.4,35.6,66,30.11,10.0,ENE,6.9,-,N/A,,Overcast,60,2012-10-09 18:55:00
1:15 PM,46.4,33.8,62,30.11,10.0,ENE,8.1,-,N/A,,Overcast,60,2012-10-09 19:15:00
1:35 PM,46.4,35.6,66,30.11,10.0,ENE,9.2,-,N/A,,Overcast,70,2012-10-09 19:35:00
1:55 PM,48.2,35.6,62,30.11,10.0,ESE,5.8,-,N/A,,Overcast,110,2012-10-09 19:55:00
2:15 PM,48.2,33.8,58,30.11,10.0,East,6.9,-,N/A,,Overcast,100,2012-10-09 20:15:00
2:35 PM,48.2,33.8,58,30.11,9.0,NE,6.9,-,N/A,,Overcast,50,2012-10-09 20:35:00
2:55 PM,48.2,35.6,62,30.12,10.0,SE,8.1,-,N/A,,Overcast,140,2012-10-09 20:55:00
3:15 PM,48.2,33.8,58,30.12,10.0,ESE,6.9,-,N/A,,Overcast,110,2012-10-09 21:15:00
3:35 PM,48.2,35.6,62,30.13,10.0,East,13.8,20.7,N/A,,Overcast,80,2012-10-09 21:35:00
3:55 PM,48.2,33.8,58,30.13,10.0,East,11.5,-,N/A,,Overcast,80,2012-10-09 21:55:00
4:15 PM,48.2,33.8,58,30.13,10.0,East,9.2,-,N/A,,Overcast,90,2012-10-09 22:15:00
4:35 PM,48.2,35.6,62,30.14,10.0,SE,10.4,-,N/A,,Overcast,130,2012-10-09 22:35:00
4:55 PM,48.2,33.8,58,30.14,10.0,East,9.2,-,N/A,,Overcast,90,2012-10-09 22:55:00
5:15 PM,48.2,33.8,58,30.15,10.0,ESE,8.1,-,N/A,,Overcast,120,2012-10-09 23:15:00
5:35 PM,48.2,33.8,58,30.16,10.0,SE,8.1,-,N/A,,Overcast,140,2012-10-09 23:35:00
5:55 PM,48.2,33.8,58,30.16,10.0,SE,6.9,-,N/A,,Overcast,140,2012-10-09 23:55:00
6:15 PM,46.4,33.8,62,30.17,10.0,SSE,8.1,-,N/A,,Overcast,150,2012-10-10 00:15:00
6:35 PM,46.4,33.8,62,30.18,10.0,SE,4.6,-,N/A,,Overcast,140,2012-10-10 00:35:00
6:55 PM,46.4,33.8,62,30.18,10.0,SSE,4.6,-,N/A,,Overcast,150,2012-10-10 00:55:00
7:15 PM,46.4,33.8,62,30.19,10.0,SSE,3.5,-,N/A,,Overcast,150,2012-10-10 01:15:00
7:35 PM,46.4,33.8,62,30.19,10.0,SSE,4.6,-,N/A,,Overcast,150,2012-10-10 01:35:00
7:55 PM,46.4,33.8,62,30.20,10.0,SSE,5.8,-,N/A,,Overcast,160,2012-10-10 01:55:00
8:15 PM,46.4,33.8,62,30.20,10.0,SSE,5.8,-,N/A,,Overcast,160,2012-10-10 02:15:00
8:35 PM,44.6,33.8,66,30.21,10.0,South,5.8,-,N/A,,Overcast,170,2012-10-10 02:35:00
8:55 PM,44.6,33.8,66,30.21,10.0,South,6.9,-,N/A,,Overcast,170,2012-10-10 02:55:00
9:15 PM,44.6,35.6,71,30.21,10.0,SSE,6.9,-,N/A,,Overcast,160,2012-10-10 03:15:00
9:35 PM,44.6,35.6,71,30.21,10.0,SSE,6.9,-,N/A,,Overcast,150,2012-10-10 03:35:00
9:55 PM,42.8,33.8,70,30.21,10.0,SSE,5.8,-,N/A,,Mostly Cloudy,150,2012-10-10 03:55:00
10:15 PM,41.0,33.8,76,30.21,10.0,SSE,3.5,-,N/A,,Clear,150,2012-10-10 04:15:00
10:35 PM,41.0,33.8,76,30.21,10.0,Calm,Calm,-,N/A,,Clear,0,2012-10-10 04:35:00
10:55 PM,39.2,33.8,81,30.21,10.0,East,4.6,-,N/A,,Clear,100,2012-10-10 04:55:00
11:15 PM,37.4,32.0,81,30.20,10.0,ESE,4.6,-,N/A,,Clear,110,2012-10-10 05:15:00
11:35 PM,37.4,30.2,75,30.20,10.0,ESE,3.5,-,N/A,,Clear,120,2012-10-10 05:35:00
11:55 PM,35.6,28.4,75,30.20,9.0,Calm,Calm,-,N/A,,Clear,0,2012-10-10 05:55:00